 day,  time,  air_temp(C),  RH(%),  ground_temp10cm(C),  ground_temp20cm(C),  ground_temp40cm(C),  precipitation(mm/h),  Solar_Radiation(MJ/m2h),  lack, 
 08/10/01, 01:00,  13.6,  99,  14.7,  14.8,  15.5,   0.0,  0.00, 
 08/10/01, 02:00,  13.1,  99,  14.6,  14.8,  15.3,   0.0,  0.00, 
 08/10/01, 03:00,  12.9,  99,  14.6,  14.8,  15.3,   3.5,  0.00, 
 08/10/01, 04:00,  12.8,  99,  14.5,  14.8,  15.3,   0.5,  0.00, 
 08/10/01, 05:00,  12.7,  99,  14.4,  14.8,  15.2,   0.0,  0.00, 
 08/10/01, 06:00,  12.4,  99,  14.4,  14.8,  15.3,   0.0,  0.00, 
 08/10/01, 07:00,  11.5,  99,  14.4,  14.8,  15.3,   0.0,  0.00, 
 08/10/01, 08:00,  11.6,  99,  14.3,  14.8,  15.3,   0.0,  0.06, 
 08/10/01, 09:00,  11.0,  99,  14.3,  14.8,  15.3,   0.0,  0.17, 
 08/10/01, 10:00,  10.6,  99,  14.3,  14.7,  15.2,   0.0,  0.15, 
 08/10/01, 11:00,  11.0,  99,  14.3,  14.7,  15.2,   0.0,  0.36, 
 08/10/01, 12:00,  11.0,  99,  14.4,  14.7,  15.2,   0.0,  0.54, 
 08/10/01, 13:00,  12.2,  99,  14.6,  14.7,  15.5,   0.5,  0.79, 
 08/10/01, 14:00,  12.1,  99,  15.0,  14.7,  15.3,   0.0,  1.18, 
 08/10/01, 15:00,  11.4,  97,  15.2,  14.8,  15.3,   0.0,  0.94, 
 08/10/01, 16:00,  12.3,  89,  15.3,  14.8,  15.3,   0.0,  1.15, 
 08/10/01, 17:00,  11.6,  91,  15.2,  14.9,  15.3,   0.0,  0.56, 
 08/10/01, 18:00,   9.9,  93,  15.1,  14.9,  15.3,   0.0,  0.10, 
 08/10/01, 19:00,   8.8,  93,  14.8,  15.0,  15.3,   0.0,  0.00, 
 08/10/01, 20:00,   7.6,  98,  14.5,  15.0,  15.3,   0.0,  0.00, 
 08/10/01, 21:00,   7.2,  99,  14.1,  15.0,  15.3,   0.0,  0.00, 
 08/10/01, 22:00,   5.9,  99,  13.8,  15.0,  15.3,   0.0,  0.00, 
 08/10/01, 23:00,   5.6,  99,  13.4,  14.9,  15.3,   0.0,  0.00, 
 08/10/02, 00:00,   7.4,  95,  13.1,  14.8,  15.3,   0.0,  0.00, 
 08/10/02, 01:00,   6.3,  99,  12.7,  14.7,  15.4,   0.0,  0.00, 
 08/10/02, 02:00,   7.0,  99,  12.5,  14.6,  15.3,   0.0,  0.00, 
 08/10/02, 03:00,   6.2,  99,  12.5,  14.5,  15.3,   0.0,  0.00, 
 08/10/02, 04:00,   4.2,  99,  12.2,  14.4,  15.3,   0.0,  0.00, 
 08/10/02, 05:00,   4.2,  99,  12.0,  14.3,  15.2,   0.0,  0.00, 
 08/10/02, 06:00,   3.8,  99,  11.7,  14.2,  15.3,   0.0,  0.00, 
 08/10/02, 07:00,   5.0,  99,  11.6,  14.1,  15.3,   0.0,  0.15, 
 08/10/02, 08:00,   8.1,  88,  11.4,  14.0,  15.3,   0.0,  0.75, 
 08/10/02, 09:00,   8.9,  85,  11.5,  13.9,  15.3,   0.0,  1.36, 
 08/10/02, 10:00,  10.6,  84,  11.7,  13.8,  15.3,   0.0,  1.97, 
 08/10/02, 11:00,  11.3,  82,  12.9,  13.7,  15.3,   0.0,  1.64, 
 08/10/02, 12:00,  13.9,  75,  13.9,  13.7,  15.2,   0.0,  1.98, 
 08/10/02, 13:00,  14.5,  74,  15.1,  13.7,  15.2,   0.0,  2.21, 
 08/10/02, 14:00,  14.9,  73,  16.1,  13.8,  15.2,   0.0,  2.35, 
 08/10/02, 15:00,  14.3,  73,  16.3,  14.0,  15.2,   0.0,  1.77, 
 08/10/02, 16:00,  12.8,  79,  16.0,  14.3,  15.4,   0.0,  1.13, 
 08/10/02, 17:00,  11.8,  88,  15.7,  14.5,  15.2,   0.0,  0.51, 
 08/10/02, 18:00,   9.9,  99,  15.3,  14.6,  15.2,   0.0,  0.05, 
 08/10/02, 19:00,   8.9,  99,  14.9,  14.7,  15.1,   0.0,  0.00, 
 08/10/02, 20:00,   8.6,  99,  14.5,  14.8,  15.1,   0.0,  0.00, 
 08/10/02, 21:00,   8.3,  99,  14.1,  14.8,  15.1,   0.0,  0.00, 
 08/10/02, 22:00,   8.8,  99,  13.8,  14.8,  15.1,   0.0,  0.00, 
 08/10/02, 23:00,   7.9,  99,  13.5,  14.7,  15.1,   0.0,  0.00, 
 08/10/03, 00:00,   8.3,  99,  13.3,  14.7,  15.4,   0.0,  0.00, 
 08/10/03, 01:00,   8.1,  99,  12.9,  14.6,  15.4,   0.0,  0.00, 
 08/10/03, 02:00,   9.1,  98,  12.8,  14.5,  15.2,   0.0,  0.00, 
 08/10/03, 03:00,   9.2,  99,  12.7,  14.4,  15.2,   0.0,  0.00, 
 08/10/03, 04:00,   9.0,  99,  12.7,  14.3,  15.2,   0.0,  0.00, 
 08/10/03, 05:00,   8.9,  99,  12.6,  14.2,  15.2,   0.0,  0.00, 
 08/10/03, 06:00,   8.1,  99,  12.6,  14.2,  15.2,   0.0,  0.00, 
 08/10/03, 07:00,   9.0,  99,  12.5,  14.1,  15.2,   0.0,  0.16, 
 08/10/03, 08:00,  10.3,  89,  12.4,  14.1,  15.1,   0.0,  0.64, 
 08/10/03, 09:00,  11.7,  81,  12.5,  14.0,  15.3,   0.0,  1.16, 
 08/10/03, 10:00,  14.3,  74,  12.7,  13.9,  15.3,   0.0,  1.93, 
 08/10/03, 11:00,  14.9,  74,  13.7,  13.9,  15.1,   0.0,  2.22, 
 08/10/03, 12:00,  14.7,  76,  15.1,  13.9,  15.1,   0.0,  1.98, 
 08/10/03, 13:00,  16.1,  73,  16.1,  14.0,  15.0,   0.0,  1.83, 
 08/10/03, 14:00,  14.5,  77,  16.7,  14.1,  15.1,   0.0,  1.18, 
 08/10/03, 15:00,  13.5,  83,  16.8,  14.3,  15.0,   0.0,  0.51, 
 08/10/03, 16:00,  12.5,  87,  16.6,  14.6,  15.1,   0.0,  0.15, 
 08/10/03, 17:00,  12.1,  88,  16.3,  14.7,  15.1,   0.0,  0.07, 
 08/10/03, 18:00,  11.4,  92,  16.0,  14.9,  15.1,   0.0,  0.00, 
 08/10/03, 19:00,  10.1,  95,  15.7,  15.0,  15.0,   0.0,  0.00, 
 08/10/03, 20:00,   9.2,  97,  15.3,  15.0,  15.0,   0.0,  0.00, 
 08/10/03, 21:00,   8.9,  92,  14.9,  15.1,  15.1,   0.0,  0.00, 
 08/10/03, 22:00,   8.2,  94,  14.5,  15.1,  15.1,   0.0,  0.00, 
 08/10/03, 23:00,   9.1,  87,  14.1,  15.0,  15.1,   0.0,  0.00, 
 08/10/04, 00:00,   8.7,  90,  13.8,  15.0,  15.1,   0.0,  0.00, 
 08/10/04, 01:00,   9.3,  88,  13.5,  14.9,  15.1,   0.0,  0.00, 
 08/10/04, 02:00,   8.4,  94,  13.4,  14.8,  15.1,   0.0,  0.00, 
 08/10/04, 03:00,   8.2,  98,  13.2,  14.7,  15.1,   0.0,  0.00, 
 08/10/04, 04:00,   8.2,  99,  12.9,  14.6,  15.1,   0.0,  0.00, 
 08/10/04, 05:00,   7.2,  99,  12.7,  14.5,  15.0,   0.0,  0.00, 
 08/10/04, 06:00,   7.3,  99,  12.5,  14.4,  15.1,   0.0,  0.00, 
 08/10/04, 07:00,   8.8,  93,  12.3,  14.3,  15.2,   0.0,  0.14, 
 08/10/04, 08:00,  12.0,  59,  12.2,  14.2,  15.1,   0.0,  0.74, 
 08/10/04, 09:00,  13.0,  68,  12.2,  14.2,  15.1,   0.0,  1.36, 
 08/10/04, 10:00,  12.7,  85,  12.4,  14.1,  15.1,   0.0,  1.88, 
 08/10/04, 11:00,  14.9,  74,  13.6,  14.0,  15.1,   0.0,  2.23, 
 08/10/04, 12:00,  15.0,  67,  15.0,  14.0,  15.2,   0.0,  2.43, 
 08/10/04, 13:00,  16.1,  64,  16.4,  14.0,  15.1,   0.0,  2.34, 
 08/10/04, 14:00,  16.1,  57,  17.3,  14.2,  15.4,   0.0,  2.13, 
 08/10/04, 15:00,  15.9,  61,  17.4,  14.5,  15.4,   0.0,  1.65, 
 08/10/04, 16:00,  15.1,  70,  17.0,  14.7,  15.1,   0.0,  1.06, 
 08/10/04, 17:00,  13.9,  77,  16.6,  14.9,  15.0,   0.0,  0.44, 
 08/10/04, 18:00,  13.4,  71,  16.3,  15.0,  15.3,   0.0,  0.02, 
 08/10/04, 19:00,  10.1,  94,  15.8,  15.2,  15.3,   0.0,  0.00, 
 08/10/04, 20:00,   9.6,  97,  15.3,  15.2,  15.3,   0.0,  0.00, 
 08/10/04, 21:00,   9.4,  99,  14.9,  15.2,  15.3,   0.0,  0.00, 
 08/10/04, 22:00,   9.1,  99,  14.6,  15.2,  15.2,   0.0,  0.00, 
 08/10/04, 23:00,   8.2,  99,  14.4,  15.2,  15.4,   0.0,  0.00, 
 08/10/05, 00:00,   8.1,  99,  14.0,  15.1,  15.3,   0.0,  0.00, 
 08/10/05, 01:00,   7.6,  99,  13.7,  15.0,  15.3,   0.0,  0.00, 
 08/10/05, 02:00,   7.4,  98,  13.5,  14.9,  15.2,   0.0,  0.00, 
 08/10/05, 03:00,   7.7,  96,  13.3,  14.8,  15.1,   0.0,  0.00, 
 08/10/05, 04:00,   8.2,  96,  13.1,  14.8,  15.2,   0.0,  0.00, 
 08/10/05, 05:00,   8.2,  94,  12.9,  14.7,  15.1,   0.0,  0.00, 
 08/10/05, 06:00,   8.6,  95,  12.7,  14.6,  15.1,   0.0,  0.00, 
 08/10/05, 07:00,  10.4,  88,  12.5,  14.5,  15.1,   0.0,  0.09, 
 08/10/05, 08:00,  11.8,  86,  12.6,  14.4,  15.0,   0.0,  0.37, 
 08/10/05, 09:00,  12.9,  82,  12.8,  14.3,  15.3,   0.0,  0.57, 
 08/10/05, 10:00,  13.5,  83,  13.2,  14.2,  15.3,   0.0,  0.53, 
 08/10/05, 11:00,  12.8,  90,  13.5,  14.2,  15.3,   0.0,  0.58, 
 08/10/05, 12:00,  14.3,  84,  13.7,  14.1,  15.4,   0.0,  0.83, 
 08/10/05, 13:00,  13.6,  94,  14.1,  14.2,  15.3,   0.0,  0.63, 
 08/10/05, 14:00,  12.6,  99,  14.4,  14.2,  15.3,   0.0,  0.43, 
 08/10/05, 15:00,  11.4,  99,  14.5,  14.2,  15.1,   0.5,  0.27, 
 08/10/05, 16:00,  11.5,  93,  14.5,  14.3,  15.0,   0.5,  0.22, 
 08/10/05, 17:00,  11.4,  99,  14.5,  14.4,  15.0,   0.0,  0.15, 
 08/10/05, 18:00,  11.3,  99,  14.5,  14.4,  15.0,   0.0,  0.00, 
 08/10/05, 19:00,  10.6,  99,  14.3,  14.5,  15.0,   0.0,  0.00, 
 08/10/05, 20:00,  10.5,  99,  14.1,  14.5,  15.1,   0.5,  0.00, 
 08/10/05, 21:00,   9.8,  99,  14.0,  14.5,  15.0,   0.0,  0.00, 
 08/10/05, 22:00,   9.8,  99,  13.8,  14.5,  15.2,   0.0,  0.00, 
 08/10/05, 23:00,   9.8,  99,  13.7,  14.5,  15.0,   1.5,  0.00, 
 08/10/06, 00:00,  10.2,  99,  13.6,  14.4,  15.2,   1.0,  0.00, 
 08/10/06, 01:00,  10.4,  99,  13.4,  14.4,  15.0,   2.0,  0.00, 
 08/10/06, 02:00,  10.0,  99,  13.4,  14.4,  15.1,   1.0,  0.00, 
 08/10/06, 03:00,  10.0,  99,  13.3,  14.3,  15.0,   1.5,  0.00, 
 08/10/06, 04:00,   9.9,  99,  13.1,  14.3,  15.0,   2.5,  0.00, 
 08/10/06, 05:00,  10.2,  99,  13.0,  14.2,  15.0,   4.5,  0.00, 
 08/10/06, 06:00,  10.4,  99,  12.9,  14.1,  14.9,   2.5,  0.00, 
 08/10/06, 07:00,  10.0,  99,  12.8,  14.0,  14.9,   3.0,  0.00, 
 08/10/06, 08:00,  11.7,  99,  12.8,  14.0,  14.9,   1.0,  0.06, 
 08/10/06, 09:00,  12.3,  99,  12.9,  13.9,  14.9,   0.5,  0.29, 
 08/10/06, 10:00,  12.8,  99,  13.4,  13.9,  14.9,   1.0,  0.37, 
 08/10/06, 11:00,  14.5,  99,  13.7,  13.8,  14.7,   0.0,  0.73, 
 08/10/06, 12:00,  14.9,  99,  14.2,  13.8,  14.8,   0.0,  0.52, 
 08/10/06, 13:00,  14.7,  99,  14.5,  13.9,  15.0,   1.0,  0.33, 
 08/10/06, 14:00,  14.1,  99,  14.8,  14.0,  14.8,   0.5,  0.42, 
 08/10/06, 15:00,  13.8,  99,  15.0,  14.1,  14.8,   0.0,  0.36, 
 08/10/06, 16:00,  12.7,  99,  15.1,  14.1,  14.7,   0.0,  0.10, 
 08/10/06, 17:00,  12.5,  99,  15.0,  14.2,  14.9,   0.0,  0.01, 
 08/10/06, 18:00,  12.1,  99,  14.9,  14.3,  14.6,   0.0,  0.00, 
 08/10/06, 19:00,  11.4,  99,  14.7,  14.4,  14.9,   0.0,  0.00, 
 08/10/06, 20:00,  11.2,  98,  14.5,  14.4,  15.0,   0.0,  0.00, 
 08/10/06, 21:00,  10.4,  98,  14.2,  14.5,  14.7,   0.0,  0.00, 
 08/10/06, 22:00,  11.3,  90,  13.9,  14.4,  14.7,   0.0,  0.00, 
 08/10/06, 23:00,  11.0,  92,  13.6,  14.4,  14.9,   0.0,  0.00, 
 08/10/07, 00:00,   9.9,  99,  13.5,  14.4,  14.9,   0.0,  0.00, 
 08/10/07, 01:00,  10.5,  94,  13.3,  14.3,  14.7,   0.0,  0.00, 
 08/10/07, 02:00,  10.9,  88,  13.1,  14.3,  14.7,   0.0,  0.00, 
 08/10/07, 03:00,  10.1,  94,  13.0,  14.2,  14.7,   0.0,  0.00, 
 08/10/07, 04:00,  10.3,  91,  12.9,  14.2,  14.7,   0.0,  0.00, 
 08/10/07, 05:00,  10.0,  95,  12.8,  14.1,  14.7,   0.0,  0.00, 
 08/10/07, 06:00,  10.2,  91,  12.7,  14.0,  14.7,   0.0,  0.00, 
 08/10/07, 07:00,   9.6,  99,  12.7,  14.0,  14.7,   0.0,  0.00, 
 08/10/07, 08:00,  10.6,  91,  12.5,  13.9,  14.6,   0.0,  0.28, 
 08/10/07, 09:00,  11.2,  99,  12.8,  13.9,  14.9,   0.0,  0.56, 
 08/10/07, 10:00,  11.9,  96,  13.2,  13.8,  14.9,   0.0,  0.64, 
 08/10/07, 11:00,  12.5,  94,  13.4,  13.8,  14.7,   0.0,  0.49, 
 08/10/07, 12:00,  14.1,  92,  13.7,  13.8,  14.7,   0.0,  0.90, 
 08/10/07, 13:00,  14.5,  90,  14.2,  13.8,  14.6,   0.0,  1.42, 
 08/10/07, 14:00,  13.8,  95,  14.8,  13.9,  14.9,   0.0,  0.75, 
 08/10/07, 15:00,  12.9,  99,  15.0,  14.0,  15.0,   0.0,  0.26, 
 08/10/07, 16:00,  12.7,  99,  15.0,  14.1,  14.7,   0.0,  0.09, 
 08/10/07, 17:00,  12.5,  99,  14.9,  14.2,  14.7,   0.0,  0.00, 
 08/10/07, 18:00,  11.9,  97,  14.8,  14.3,  14.9,   0.0,  0.00, 
 08/10/07, 19:00,  11.0,  99,  14.6,  14.3,  14.9,   0.0,  0.00, 
 08/10/07, 20:00,  11.7,  94,  14.5,  14.4,  14.8,   0.0,  0.00, 
 08/10/07, 21:00,  10.8,  99,  14.2,  14.4,  14.8,   0.0,  0.00, 
 08/10/07, 22:00,  11.9,  90,  14.0,  14.4,  14.5,   0.0,  0.00, 
 08/10/07, 23:00,  10.8,  99,  13.9,  14.4,  14.8,   0.0,  0.00, 
 08/10/08, 00:00,  11.4,  97,  13.8,  14.4,  14.8,   0.0,  0.00, 
 08/10/08, 01:00,  11.7,  88,  13.7,  14.3,  14.7,   0.0,  0.00, 
 08/10/08, 02:00,  11.4,  90,  13.6,  14.3,  14.7,   0.0,  0.00, 
 08/10/08, 03:00,  10.6,  97,  13.5,  14.3,  14.7,   0.5,  0.00, 
 08/10/08, 04:00,   9.4,  99,  13.4,  14.2,  14.7,   0.5,  0.00, 
 08/10/08, 05:00,   9.9,  99,  13.2,  14.2,  14.6,   0.0,  0.00, 
 08/10/08, 06:00,   9.6,  99,  13.1,  14.2,  14.7,   0.0,  0.00, 
 08/10/08, 07:00,  10.5,  93,  13.0,  14.1,  14.7,   0.0,  0.01, 
 08/10/08, 08:00,  11.8,  95,  12.9,  14.1,  14.7,   0.0,  0.46, 
 08/10/08, 09:00,  12.5,  96,  13.2,  14.0,  14.7,   0.0,  0.70, 
 08/10/08, 10:00,  15.6,  82,  13.5,  14.0,  14.9,   0.0,  1.23, 
 08/10/08, 11:00,  15.8,  88,  14.3,  13.9,  15.0,   0.0,  1.84, 
 08/10/08, 12:00,  16.2,  81,  15.6,  14.0,  14.7,   0.0,  2.01, 
 08/10/08, 13:00,  19.1,  72,  16.8,  14.1,  14.9,   0.0,  2.40, 
 08/10/08, 14:00,  18.4,  69,  17.8,  14.2,  15.0,   0.0,  2.14, 
 08/10/08, 15:00,  16.7,  65,  17.9,  14.5,  14.9,   0.0,  1.62, 
 08/10/08, 16:00,  16.2,  72,  17.6,  14.8,  14.9,   0.0,  0.99, 
 08/10/08, 17:00,  14.0,  90,  17.2,  15.0,  14.9,   0.0,  0.20, 
 08/10/08, 18:00,  12.6,  97,  16.9,  15.2,  14.8,   0.0,  0.00, 
 08/10/08, 19:00,  12.4,  99,  16.3,  15.3,  14.8,   0.0,  0.00, 
 08/10/08, 20:00,  13.1,  98,  16.1,  15.3,  15.0,   0.0,  0.00, 
 08/10/08, 21:00,  12.9,  95,  15.8,  15.4,  15.0,   0.0,  0.00, 
 08/10/08, 22:00,  12.4,  99,  15.6,  15.4,  15.0,   0.0,  0.00, 
 08/10/08, 23:00,  12.3,  99,  15.4,  15.3,  14.9,   0.0,  0.00, 
 08/10/09, 00:00,  11.8,  99,  15.3,  15.3,  14.7,   0.0,  0.00, 
 08/10/09, 01:00,  11.3,  99,  15.1,  15.3,  14.7,   0.0,  0.00, 
 08/10/09, 02:00,  10.6,  99,  14.9,  15.3,  14.8,   0.0,  0.00, 
 08/10/09, 03:00,  10.0,  99,  14.7,  15.2,  14.8,   0.0,  0.00, 
 08/10/09, 04:00,   9.3,  99,  14.4,  15.2,  14.8,   0.0,  0.00, 
 08/10/09, 05:00,   9.1,  99,  14.1,  15.1,  14.8,   0.0,  0.00, 
 08/10/09, 06:00,   9.6,  99,  13.9,  15.0,  14.8,   0.0,  0.00, 
 08/10/09, 07:00,   9.8,  99,  13.7,  14.9,  14.8,   0.0,  0.04, 
 08/10/09, 08:00,  11.8,  97,  13.6,  14.9,  15.0,   0.0,  0.34, 
 08/10/09, 09:00,  14.3,  77,  13.7,  14.8,  14.9,   0.0,  0.96, 
 08/10/09, 10:00,  16.0,  73,  14.1,  14.7,  14.9,   0.0,  1.75, 
 08/10/09, 11:00,  14.9,  85,  14.9,  14.7,  14.9,   0.0,  1.40, 
 08/10/09, 12:00,  16.4,  72,  15.4,  14.6,  15.1,   0.0,  0.95, 
 08/10/09, 13:00,  15.7,  76,  15.8,  14.7,  15.2,   0.0,  0.91, 
 08/10/09, 14:00,  17.4,  65,  16.1,  14.8,  15.2,   0.0,  1.53, 
 08/10/09, 15:00,  16.6,  70,  16.4,  14.9,  14.9,   0.0,  1.59, 
 08/10/09, 16:00,  15.6,  77,  16.4,  15.0,  14.9,   0.0,  0.71, 
 08/10/09, 17:00,  14.7,  82,  16.2,  15.1,  14.9,   0.0,  0.31, 
 08/10/09, 18:00,  12.7,  92,  15.9,  15.2,  14.9,   0.0,  0.00, 
 08/10/09, 19:00,  12.5,  97,  15.6,  15.3,  15.2,   0.0,  0.00, 
 08/10/09, 20:00,  12.6,  96,  15.4,  15.3,  15.1,   0.0,  0.00, 
 08/10/09, 21:00,  11.4,  99,  15.1,  15.3,  15.2,   0.0,  0.00, 
 08/10/09, 22:00,  11.5,  99,  14.9,  15.3,  15.2,   0.0,  0.00, 
 08/10/09, 23:00,  11.6,  99,  14.7,  15.2,  15.1,   0.0,  0.00, 
 08/10/10, 00:00,  10.4,  99,  14.5,  15.2,  15.1,   0.0,  0.00, 
 08/10/10, 01:00,  10.1,  99,  14.3,  15.1,  14.9,   0.0,  0.00, 
 08/10/10, 02:00,   9.9,  99,  14.1,  15.1,  14.9,   0.0,  0.00, 
 08/10/10, 03:00,   9.9,  99,  13.8,  15.0,  14.9,   0.0,  0.00, 
 08/10/10, 04:00,   9.9,  99,  13.7,  14.9,  14.9,   0.0,  0.00, 
 08/10/10, 05:00,   9.0,  99,  13.5,  14.9,  15.0,   0.0,  0.00, 
 08/10/10, 06:00,   9.2,  98,  13.3,  14.8,  14.9,   0.0,  0.00, 
 08/10/10, 07:00,   9.7,  96,  13.1,  14.7,  15.0,   0.0,  0.03, 
 08/10/10, 08:00,  13.0,  85,  13.0,  14.6,  15.2,   0.0,  0.67, 
 08/10/10, 09:00,  13.5,  82,  13.0,  14.5,  15.2,   0.0,  0.94, 
 08/10/10, 10:00,  17.2,  70,  13.4,  14.4,  15.3,   0.0,  1.85, 
 08/10/10, 11:00,  16.4,  77,  14.5,  14.4,  15.2,   0.0,  2.09, 
 08/10/10, 12:00,  17.8,  79,  15.7,  14.5,  15.2,   0.0,  2.26, 
 08/10/10, 13:00,  18.6,  70,  16.9,  14.4,  15.2,   0.0,  1.74, 
 08/10/10, 14:00,  18.7,  62,  17.6,  14.6,  15.2,   0.0,  2.00, 
 08/10/10, 15:00,  17.2,  65,  17.8,  14.8,  15.2,   0.0,  1.39, 
 08/10/10, 16:00,  16.5,  70,  17.6,  15.1,  15.2,   0.0,  1.00, 
 08/10/10, 17:00,  14.8,  77,  17.2,  15.3,  15.2,   0.0,  0.21, 
 08/10/10, 18:00,  12.8,  91,  16.8,  15.4,  15.1,   0.0,  0.00, 
 08/10/10, 19:00,  13.1,  92,  16.5,  15.5,  15.2,   0.0,  0.00, 
 08/10/10, 20:00,  13.2,  90,  16.1,  15.6,  15.2,   0.0,  0.00, 
 08/10/10, 21:00,  13.3,  84,  15.8,  15.6,  15.2,   0.0,  0.00, 
 08/10/10, 22:00,  12.6,  91,  15.6,  15.6,  15.1,   0.0,  0.00, 
 08/10/10, 23:00,  12.8,  90,  15.4,  15.6,  15.2,   0.0,  0.00, 
 08/10/11, 00:00,  12.5,  97,  15.3,  15.5,  15.2,   0.0,  0.00, 
 08/10/11, 01:00,  12.3,  96,  15.2,  15.5,  15.2,   0.0,  0.00, 
 08/10/11, 02:00,  11.7,  99,  15.0,  15.4,  15.2,   0.0,  0.00, 
 08/10/11, 03:00,  11.3,  99,  14.9,  15.4,  15.2,   0.0,  0.00, 
 08/10/11, 04:00,  11.3,  99,  14.8,  15.3,  15.2,   0.0,  0.00, 
 08/10/11, 05:00,  11.1,  99,  14.7,  15.3,  15.2,   0.5,  0.00, 
 08/10/11, 06:00,  11.2,  99,  14.6,  15.3,  15.2,   1.0,  0.00, 
 08/10/11, 07:00,  11.3,  99,  14.5,  15.2,  15.2,   0.5,  0.00, 
 08/10/11, 08:00,  11.4,  99,  14.4,  15.2,  15.2,   0.5,  0.00, 
 08/10/11, 09:00,  11.7,  97,  14.3,  15.1,  15.2,   0.0,  0.03, 
 08/10/11, 10:00,  11.9,  98,  14.3,  15.1,  15.4,   0.0,  0.46, 
 08/10/11, 11:00,  13.2,  92,  14.5,  15.0,  15.3,   0.0,  1.07, 
 08/10/11, 12:00,  13.0,  83,  15.1,  15.0,  15.3,   0.0,  1.39, 
 08/10/11, 13:00,  13.6,  83,  15.6,  15.0,  15.3,   0.0,  1.16, 
 08/10/11, 14:00,  11.7,  86,  16.0,  15.0,  15.4,   0.0,  0.89, 
 08/10/11, 15:00,  12.1,  84,  16.0,  15.1,  15.3,   0.0,  1.05, 
 08/10/11, 16:00,   9.5,  89,  15.9,  15.1,  15.3,   0.0,  0.53, 
 08/10/11, 17:00,   8.4,  89,  15.6,  15.2,  15.2,   0.0,  0.21, 
 08/10/11, 18:00,   7.3,  89,  15.2,  15.2,  15.2,   0.0,  0.02, 
 08/10/11, 19:00,   7.0,  91,  14.8,  15.3,  15.3,   0.0,  0.00, 
 08/10/11, 20:00,   6.1,  94,  14.4,  15.2,  15.3,   0.0,  0.00, 
 08/10/11, 21:00,   6.3,  94,  14.1,  15.2,  15.3,   0.0,  0.00, 
 08/10/11, 22:00,   5.6,  92,  13.8,  15.1,  15.3,   0.0,  0.00, 
 08/10/11, 23:00,   4.3,  98,  13.5,  15.0,  15.4,   0.0,  0.00, 
 08/10/12, 00:00,   4.4,  98,  13.1,  14.9,  15.3,   0.0,  0.00, 
 08/10/12, 01:00,   4.7,  95,  12.8,  14.8,  15.3,   0.0,  0.00, 
 08/10/12, 02:00,   4.1,  94,  12.5,  14.7,  15.3,   0.0,  0.00, 
 08/10/12, 03:00,   4.1,  92,  12.4,  14.6,  15.3,   0.0,  0.00, 
 08/10/12, 04:00,   3.4,  96,  12.2,  14.5,  15.3,   0.0,  0.00, 
 08/10/12, 05:00,   3.0,  94,  12.0,  14.3,  15.1,   0.0,  0.00, 
 08/10/12, 06:00,   1.8,  99,  11.7,  14.2,  15.2,   0.0,  0.00, 
 08/10/12, 07:00,   3.1,  98,  11.4,  14.1,  15.2,   0.0,  0.07, 
 08/10/12, 08:00,   4.5,  84,  11.2,  14.0,  15.2,   0.0,  0.77, 
 08/10/12, 09:00,   5.6,  83,  11.1,  13.8,  15.2,   0.0,  1.30, 
 08/10/12, 10:00,   6.7,  82,  11.1,  13.7,  15.3,   0.0,  1.27, 
 08/10/12, 11:00,   8.7,  79,  11.7,  13.6,  15.2,   0.0,  1.56, 
 08/10/12, 12:00,  10.1,  76,  12.6,  13.5,  15.1,   0.0,  1.99, 
 08/10/12, 13:00,  11.7,  72,  13.6,  13.5,  15.1,   0.0,  1.90, 
 08/10/12, 14:00,  11.6,  77,  14.3,  13.5,  15.1,   0.0,  1.22, 
 08/10/12, 15:00,  11.5,  78,  14.5,  13.6,  15.1,   0.0,  0.91, 
 08/10/12, 16:00,  11.2,  84,  14.5,  13.7,  15.0,   0.0,  1.02, 
 08/10/12, 17:00,  10.3,  91,  14.5,  13.9,  15.0,   0.0,  0.27, 
 08/10/12, 18:00,   9.5,  97,  14.2,  14.0,  15.0,   0.0,  0.00, 
 08/10/12, 19:00,   9.8,  99,  14.0,  14.0,  15.1,   0.0,  0.00, 
 08/10/12, 20:00,   9.6,  98,  13.8,  14.1,  15.0,   0.0,  0.00, 
 08/10/12, 21:00,   8.0,  99,  13.6,  14.1,  14.9,   0.0,  0.00, 
 08/10/12, 22:00,   8.3,  99,  13.4,  14.1,  14.9,   0.0,  0.00, 
 08/10/12, 23:00,   8.9,  97,  13.2,  14.1,  14.9,   0.0,  0.00, 
 08/10/13, 00:00,   7.9,  99,  12.9,  14.0,  14.9,   0.0,  0.00, 
 08/10/13, 01:00,   7.9,  98,  12.6,  14.0,  14.9,   0.0,  0.00, 
 08/10/13, 02:00,   8.4,  96,  12.4,  13.9,  14.9,   0.0,  0.00, 
 08/10/13, 03:00,   7.0,  99,  12.3,  13.9,  14.9,   0.0,  0.00, 
 08/10/13, 04:00,   7.0,  98,  12.1,  13.8,  14.9,   0.0,  0.00, 
 08/10/13, 05:00,   6.9,  99,  11.9,  13.7,  14.9,   0.0,  0.00, 
 08/10/13, 06:00,   6.8,  93,  11.7,  13.7,  14.9,   0.0,  0.00, 
 08/10/13, 07:00,   6.4,  95,  11.5,  13.6,  14.8,   0.0,  0.07, 
 08/10/13, 08:00,  10.7,  83,  11.3,  13.5,  14.8,   0.0,  0.72, 
 08/10/13, 09:00,  12.1,  71,  11.4,  13.5,  14.8,   0.0,  1.28, 
 08/10/13, 10:00,  13.5,  68,  11.6,  13.3,  14.8,   0.0,  1.82, 
 08/10/13, 11:00,  13.6,  71,  12.7,  13.3,  14.8,   0.0,  2.12, 
 08/10/13, 12:00,  15.6,  60,  14.0,  13.3,  14.8,   0.0,  2.20, 
 08/10/13, 13:00,  14.4,  59,  15.3,  13.4,  14.8,   0.0,  1.94, 
 08/10/13, 14:00,  15.8,  55,  15.9,  13.5,  14.7,   0.0,  1.82, 
 08/10/13, 15:00,  14.8,  55,  16.2,  13.7,  14.7,   0.0,  1.63, 
 08/10/13, 16:00,  13.6,  61,  15.9,  13.9,  14.7,   0.0,  0.91, 
 08/10/13, 17:00,  12.3,  71,  15.5,  14.1,  14.7,   0.0,  0.22, 
 08/10/13, 18:00,   9.9,  90,  15.0,  14.2,  14.7,   0.0,  0.02, 
 08/10/13, 19:00,  10.1,  90,  14.6,  14.3,  14.7,   0.0,  0.00, 
 08/10/13, 20:00,   9.4,  94,  14.3,  14.4,  14.8,   0.0,  0.00, 
 08/10/13, 21:00,   8.3,  98,  13.9,  14.3,  14.7,   0.0,  0.00, 
 08/10/13, 22:00,   7.8,  97,  13.5,  14.3,  14.7,   0.0,  0.00, 
 08/10/13, 23:00,   8.3,  85,  13.2,  14.3,  14.7,   0.0,  0.00, 
 08/10/14, 00:00,   9.0,  73,  12.8,  14.2,  14.7,   0.0,  0.00, 
 08/10/14, 01:00,   9.2,  79,  12.6,  14.1,  14.7,   0.0,  0.00, 
 08/10/14, 02:00,   9.5,  79,  12.3,  14.0,  14.7,   0.0,  0.00, 
 08/10/14, 03:00,   9.4,  81,  12.2,  13.9,  14.7,   0.0,  0.00, 
 08/10/14, 04:00,  10.0,  78,  12.0,  13.8,  14.7,   0.0,  0.00, 
 08/10/14, 05:00,  10.1,  81,  11.9,  13.7,  14.7,   0.0,  0.00, 
 08/10/14, 06:00,  10.5,  81,  11.9,  13.7,  14.7,   0.0,  0.00, 
 08/10/14, 07:00,  11.1,  75,  11.8,  13.6,  14.7,   0.0,  0.00, 
 08/10/14, 08:00,  11.3,  76,  11.8,  13.5,  14.7,   0.0,  0.11, 
 08/10/14, 09:00,  11.7,  69,  11.9,  13.5,  14.7,   0.0,  0.16, 
 08/10/14, 10:00,  11.4,  73,  12.0,  13.5,  14.7,   0.0,  0.13, 
 08/10/14, 11:00,   8.6,  97,  12.1,  13.3,  14.6,   1.5,  0.12, 
 08/10/14, 12:00,   8.3,  99,  12.1,  13.3,  14.6,   2.0,  0.13, 
 08/10/14, 13:00,   9.6,  91,  12.0,  13.3,  14.6,   1.0,  0.19, 
 08/10/14, 14:00,   8.8,  99,  12.0,  13.2,  14.6,   2.0,  0.09, 
 08/10/14, 15:00,   8.9,  99,  11.9,  13.3,  14.6,   2.5,  0.00, 
 08/10/14, 16:00,  10.2,  96,  11.9,  13.1,  14.6,   0.0,  0.10, 
 08/10/14, 17:00,   9.1,  99,  11.9,  13.1,  14.5,   0.0,  0.00, 
 08/10/14, 18:00,   9.0,  99,  11.9,  13.2,  14.6,   0.0,  0.00, 
 08/10/14, 19:00,   8.8,  99,  11.9,  13.0,  14.5,   0.0,  0.00, 
 08/10/14, 20:00,   9.1,  99,  11.9,  13.0,  14.6,   0.0,  0.00, 
 08/10/14, 21:00,   9.3,  99,  11.8,  13.1,  14.6,   0.0,  0.00, 
 08/10/14, 22:00,   9.4,  99,  11.8,  13.0,  14.5,   0.0,  0.00, 
 08/10/14, 23:00,   9.6,  99,  11.8,  13.0,  14.4,   0.0,  0.00, 
 08/10/15, 00:00,   9.8,  99,  11.8,  13.0,  14.5,   0.0,  0.00, 
 08/10/15, 01:00,   9.8,  99,  11.8,  12.9,  14.5,   0.5,  0.00, 
 08/10/15, 02:00,  10.4,  99,  11.8,  12.9,  14.4,   0.0,  0.00, 
 08/10/15, 03:00,   9.9,  99,  11.8,  12.9,  14.4,   0.0,  0.00, 
 08/10/15, 04:00,   9.2,  99,  11.8,  12.9,  14.3,   0.0,  0.00, 
 08/10/15, 05:00,   9.1,  99,  11.7,  12.9,  14.3,   0.0,  0.00, 
 08/10/15, 06:00,   8.5,  99,  11.7,  12.8,  14.3,   0.0,  0.00, 
 08/10/15, 07:00,   8.3,  99,  11.6,  12.8,  14.4,   0.0,  0.00, 
 08/10/15, 08:00,   9.0,  99,  11.5,  12.8,  14.4,   0.0,  0.56, 
 08/10/15, 09:00,   9.8,  99,  11.6,  12.8,  14.2,   0.0,  0.80, 
 08/10/15, 10:00,  11.1,  98,  11.9,  12.7,  14.3,   0.0,  1.28, 
 08/10/15, 11:00,  11.7,  88,  12.7,  12.7,  14.3,   0.0,  1.18, 
 08/10/15, 12:00,  13.6,  75,  13.4,  12.7,  14.3,   0.0,  1.46, 
 08/10/15, 13:00,  13.6,  69,  14.1,  12.8,  14.3,   0.0,  1.11, 
 08/10/15, 14:00,  14.3,  59,  14.5,  12.9,  14.3,   0.0,  1.78, 
 08/10/15, 15:00,  13.3,  55,  14.7,  13.2,  14.3,   0.0,  1.45, 
 08/10/15, 16:00,  11.4,  71,  14.5,  13.3,  14.1,   0.0,  0.87, 
 08/10/15, 17:00,  10.3,  78,  14.0,  13.5,  14.2,   0.0,  0.27, 
 08/10/15, 18:00,   8.1,  89,  13.6,  13.5,  14.1,   0.0,  0.00, 
 08/10/15, 19:00,   6.9,  95,  13.3,  13.5,  14.1,   0.0,  0.00, 
 08/10/15, 20:00,   6.1,  98,  12.9,  13.5,  14.1,   0.0,  0.00, 
 08/10/15, 21:00,   5.8,  98,  12.5,  13.5,  14.1,   0.0,  0.00, 
 08/10/15, 22:00,   5.3,  99,  12.1,  13.5,  14.1,   0.0,  0.00, 
 08/10/15, 23:00,   4.5,  99,  11.8,  13.4,  14.1,   0.0,  0.00, 
 08/10/16, 00:00,   4.6,  99,  11.5,  13.3,  14.1,   0.0,  0.00, 
 08/10/16, 01:00,   4.7,  99,  11.2,  13.3,  14.2,   0.0,  0.00, 